TimeCDT,TemperatureF,Dew PointF,Humidity,Sea Level PressureIn,VisibilityMPH,Wind Direction,Wind SpeedMPH,Gust SpeedMPH,PrecipitationIn,Events,Conditions,WindDirDegrees,DateUTC
12:53 AM,73.9,70.0,87,30.01,10.0,SSW,8.1,-,N/A,,Mostly Cloudy,200,2012-10-15 05:53:00
1:53 AM,73.0,70.0,90,30.01,10.0,SW,6.9,-,N/A,,Mostly Cloudy,220,2012-10-15 06:53:00
2:53 AM,72.0,69.1,91,30.00,8.0,West,3.5,-,N/A,,Scattered Clouds,280,2012-10-15 07:53:00
3:53 AM,72.0,70.0,93,29.99,8.0,Calm,Calm,-,N/A,,Scattered Clouds,0,2012-10-15 08:53:00
4:53 AM,71.1,69.1,93,29.99,8.0,West,4.6,-,N/A,,Mostly Cloudy,260,2012-10-15 09:53:00
5:53 AM,73.0,71.1,93,29.98,8.0,WSW,4.6,-,N/A,,Scattered Clouds,240,2012-10-15 10:53:00
6:29 AM,73.4,71.6,94,29.99,8.0,NW,9.2,-,N/A,,Mostly Cloudy,310,2012-10-15 11:29:00
6:53 AM,73.4,71.6,94,29.99,9.0,NNW,6.9,-,N/A,,Mostly Cloudy,340,2012-10-15 11:53:00
7:53 AM,73.9,68.0,82,30.01,10.0,North,6.9,-,N/A,,Mostly Cloudy,350,2012-10-15 12:53:00
8:49 AM,75.2,69.8,83,30.01,10.0,North,12.7,-,N/A,,Mostly Cloudy,350,2012-10-15 13:49:00
8:53 AM,75.0,70.0,84,30.02,10.0,North,9.2,-,N/A,,Mostly Cloudy,360,2012-10-15 13:53:00
9:45 AM,75.2,69.8,83,30.02,10.0,NNE,11.5,-,N/A,,Mostly Cloudy,20,2012-10-15 14:45:00
9:53 AM,75.9,69.1,79,30.03,10.0,NNE,11.5,-,N/A,,Mostly Cloudy,20,2012-10-15 14:53:00
10:50 AM,78.8,69.8,74,30.01,10.0,NNE,9.2,-,N/A,,Mostly Cloudy,30,2012-10-15 15:50:00
10:53 AM,78.1,69.1,74,30.02,10.0,NNE,11.5,-,N/A,,Mostly Cloudy,20,2012-10-15 15:53:00
11:53 AM,80.1,68.0,67,30.01,10.0,North,11.5,-,N/A,,Mostly Cloudy,360,2012-10-15 16:53:00
12:53 PM,81.0,66.0,60,29.99,10.0,NNE,10.4,-,N/A,,Mostly Cloudy,20,2012-10-15 17:53:00
1:53 PM,82.9,62.1,49,29.96,10.0,North,10.4,-,N/A,,Mostly Cloudy,10,2012-10-15 18:53:00
2:53 PM,82.9,62.1,49,29.95,10.0,North,9.2,-,N/A,,Mostly Cloudy,360,2012-10-15 19:53:00
3:53 PM,80.1,62.1,54,29.94,10.0,NNW,8.1,-,N/A,,Mostly Cloudy,340,2012-10-15 20:53:00
4:53 PM,81.0,61.0,50,29.93,10.0,North,6.9,-,N/A,,Mostly Cloudy,360,2012-10-15 21:53:00
5:53 PM,78.1,59.0,52,29.93,10.0,North,9.2,-,N/A,,Mostly Cloudy,10,2012-10-15 22:53:00
6:53 PM,75.9,57.9,54,29.94,10.0,NNE,11.5,-,N/A,,Mostly Cloudy,20,2012-10-15 23:53:00
7:53 PM,75.0,57.9,55,29.96,10.0,NNE,9.2,-,N/A,,Mostly Cloudy,20,2012-10-16 00:53:00
8:53 PM,73.0,57.9,59,29.97,10.0,NNE,10.4,-,N/A,,Mostly Cloudy,20,2012-10-16 01:53:00
9:53 PM,72.0,57.9,61,29.99,10.0,NNE,8.1,-,N/A,,Mostly Cloudy,20,2012-10-16 02:53:00
10:53 PM,71.1,57.9,63,30.00,10.0,NNE,8.1,-,N/A,,Scattered Clouds,20,2012-10-16 03:53:00
11:53 PM,72.0,55.9,57,29.99,10.0,NE,8.1,-,N/A,,Partly Cloudy,40,2012-10-16 04:53:00